DateTimeUTC,F1_A11,F1_S11,BsB_S11,BsG_S11,BsR_S11,BbsB_S11,BbsG_S11,BbsR_S11,BaB_A11,BaG_A11,BaR_A11,Tu_S11,T_S11,Uu_S11,U_S11,P_S11,T1_A11
2021-11-08T03:00:00Z,00000200,21000000,,,,,,,0000.28,0000.22,0000.02,15.5,22.3,,00.0,0646.6,30.6
2021-11-08T03:01:00Z,00000200,21000000,,,,,,,0000.08,0000.55,0000.43,15.5,22.3,,00.0,0646.6,30.6
2021-11-08T03:02:00Z,00000200,21000000,,,,,,,0000.32,0000.04,-000.01,15.5,22.3,,00.0,0646.6,30.6
2021-11-08T03:03:00Z,00000200,61000000,,,,,,,0000.88,0000.65,0000.99,15.5,22.3,,00.0,0646.6,30.6
2021-11-08T03:04:00Z,00000200,41000000,-000.26,0000.00,-000.13,-000.25,0000.12,0000.02,-000.11,0000.59,-000.18,15.8,22.2,,00.0,0647.3,30.6
2021-11-08T03:05:00Z,00000200,01000000,-000.01,0000.38,0000.20,0000.37,0000.49,0000.11,0000.36,0000.25,0000.83,15.8,22.2,,00.0,0647.4,30.6
2021-11-08T03:06:00Z,00000200,01000000,0000.43,0000.01,0000.19,-000.10,0000.13,-000.02,0000.43,-000.02,-000.01,15.8,22.1,,00.0,0647.3,30.6
2021-11-08T03:07:00Z,00000200,01000000,0000.01,0000.13,0000.21,-000.15,0000.12,-000.10,-000.19,0000.33,0000.10,15.9,22.1,,00.0,0647.3,30.6
2021-11-08T03:08:00Z,00000200,01000000,0000.04,-000.04,0000.13,-000.12,0000.15,0000.18,0000.62,0000.32,0000.02,15.9,22.1,,00.0,0647.3,30.6
2021-11-08T03:09:00Z,00000200,01000000,-000.22,0000.56,0000.08,-000.66,-000.15,0000.29,-000.10,0000.05,0000.30,15.9,22.1,,00.0,0647.3,30.7
2021-11-08T03:10:00Z,00000200,01000000,-000.03,0000.29,0000.38,0000.68,0000.19,0000.29,0000.20,0000.25,0000.04,15.9,22.1,,00.0,0647.3,30.7
2021-11-08T03:11:00Z,00000200,01000000,-000.01,0000.21,-000.12,-000.07,0000.43,-000.04,0000.06,-000.41,0000.08,15.9,22.2,,00.0,0647.3,30.7
2021-11-08T03:12:00Z,00000200,01000000,0000.07,0000.28,0000.10,0000.46,0000.22,0000.11,0000.72,0000.69,-000.01,15.9,22.2,,00.0,0647.3,30.7
2021-11-08T03:13:00Z,00000200,01000000,-000.18,0000.63,0000.22,0000.20,-000.18,0000.11,-000.41,-000.13,0000.31,15.9,22.2,,00.0,0647.3,30.7
2021-11-08T03:14:00Z,00000200,01000000,-000.18,0000.30,-000.06,0000.17,0000.29,-000.15,0000.33,0000.46,0000.23,15.9,22.2,,00.0,0647.2,30.7
2021-11-08T03:15:00Z,00000200,01000000,-000.52,0000.34,-000.14,0000.37,0000.05,0000.32,0000.08,0000.21,0000.13,15.9,22.2,,00.0,0647.3,30.7
2021-11-08T03:16:00Z,00000200,01000000,-000.10,0000.36,0000.29,0000.39,-000.21,0000.01,0000.16,-000.08,-000.08,16.0,22.2,,00.0,0647.2,30.7
2021-11-08T03:17:00Z,00000200,01000000,-000.23,-000.05,0000.22,-000.78,0000.16,-000.17,0000.06,0000.11,0000.37,16.0,22.2,,00.0,0647.2,30.7
2021-11-08T03:18:00Z,00000200,01000000,0000.29,0000.38,0000.12,0000.37,0000.28,0000.07,0000.12,0000.26,-000.24,16.0,22.2,,00.0,0647.2,30.7
2021-11-08T03:19:00Z,00000200,01000000,-000.43,-000.07,0000.09,-000.17,0000.01,0000.19,0000.05,-000.13,0000.13,16.0,22.2,,00.0,0647.2,30.7
2021-11-08T03:20:00Z,00000200,01000000,0000.12,0000.01,-000.11,-000.21,-000.09,0000.03,0000.07,0000.20,0000.54,16.0,22.2,,00.0,0647.2,30.7
2021-11-08T03:21:00Z,00000200,01000000,0000.55,0000.33,0000.39,-000.41,0000.18,-000.06,0000.22,0000.25,-000.22,16.0,22.2,,00.0,0647.2,30.7
2021-11-08T03:22:00Z,00000200,01000000,0000.26,0000.02,0000.11,-000.29,0000.11,0000.14,0000.16,-000.09,-000.03,16.0,22.2,,00.0,0647.2,30.7
2021-11-08T03:23:00Z,00000200,01000000,-000.14,0000.17,0000.36,0000.16,0000.11,0000.06,-000.09,0000.01,0000.21,16.0,22.2,,00.0,0647.2,30.7
2021-11-08T03:24:00Z,00000200,01000000,-000.04,0000.34,0000.03,-000.14,0000.17,-000.05,0000.35,-000.07,0000.39,16.0,22.2,,00.0,0647.2,30.7
2021-11-08T03:25:00Z,00000200,01000000,0000.31,0000.41,0000.12,-000.54,0000.41,0000.12,-000.01,0000.31,-000.15,16.0,22.2,,00.0,0647.2,30.7
2021-11-08T03:26:00Z,00000200,01000000,-000.74,0000.18,0000.03,-000.08,0000.09,0000.10,-000.08,0000.09,0000.14,16.1,22.2,,00.0,0647.2,30.7
2021-11-08T03:27:00Z,00000200,01000000,0000.16,0000.27,0000.31,-000.10,0000.33,-000.14,0000.03,-000.05,-000.23,16.1,22.2,,00.0,0647.2,30.7
2021-11-08T03:28:00Z,00000200,01000000,0000.45,0000.23,-000.18,0000.32,0000.01,-000.03,0000.49,0000.13,0000.22,16.1,22.2,,00.0,0647.2,30.7
2021-11-08T03:29:00Z,00000200,01000000,0000.39,0000.10,0000.03,-000.23,0000.03,0000.13,-000.45,0000.19,0000.13,16.1,22.2,,00.0,0647.1,30.7
2021-11-08T03:30:00Z,00000200,01000000,0000.52,0000.45,-000.03,0000.52,0000.40,0000.08,0000.32,0000.37,0000.30,16.2,22.2,,00.0,0647.1,30.7
2021-11-08T03:31:00Z,00000200,01000000,-000.56,0000.26,0000.39,0000.08,0000.16,-000.10,-000.11,0000.07,-000.26,16.1,22.2,,00.0,0647.1,30.7
2021-11-08T03:32:00Z,00000200,01000000,0000.18,-000.04,-000.01,0000.06,0000.12,-000.25,0000.29,0000.05,-000.06,16.2,22.3,,00.0,0647.1,30.7
2021-11-08T03:33:00Z,00000200,01000000,0000.50,0000.06,-000.03,-000.04,0000.19,0000.05,0000.33,-000.61,0000.16,16.2,22.3,,00.0,0647.1,30.7
2021-11-08T03:34:00Z,00000200,01000000,0000.81,0000.17,0000.28,-000.35,0000.15,0000.06,-000.21,0000.31,0000.23,16.2,22.3,,00.0,0647.1,30.7
2021-11-08T03:35:00Z,00000200,01000000,0000.08,0000.18,0000.11,-000.08,0000.22,0000.10,0000.12,0000.12,-000.20,16.2,22.3,,00.0,0647.1,30.7
2021-11-08T03:36:00Z,00000200,01000000,0000.12,0000.21,0000.32,-000.72,0000.13,0000.33,0000.38,0000.36,0000.26,16.2,22.3,,00.0,0647.1,30.7
2021-11-08T03:37:00Z,00000200,01000000,-000.06,0000.08,-000.09,-000.42,-000.03,0000.11,-000.20,0000.06,-000.18,16.2,22.3,,00.0,0647.0,30.7
2021-11-08T03:38:00Z,00000200,01000000,0000.75,0000.31,-000.15,-000.19,0000.39,-000.14,0000.14,0000.17,0000.27,16.3,22.3,,00.0,0647.1,30.7
2021-11-08T03:39:00Z,00000200,01000000,-000.26,0000.21,0000.12,0000.66,-000.20,-000.18,0000.11,-000.15,0000.10,16.3,22.4,,00.0,0647.1,30.7
2021-11-08T03:40:00Z,00000200,01000000,0000.43,0000.06,-000.10,0000.06,0000.25,-000.09,0000.01,0000.11,-000.04,16.3,22.4,,00.0,0647.0,30.7
2021-11-08T03:41:00Z,00000200,01000000,0000.29,0000.18,0000.21,-000.57,0000.32,-000.20,-000.03,0000.17,0000.03,16.3,22.4,,00.0,0647.0,30.7
2021-11-08T03:42:00Z,00000200,01000000,0000.42,0000.28,0000.22,-000.00,0000.25,-000.08,0000.12,-000.24,0000.02,16.3,22.4,,00.0,0647.0,30.7
2021-11-08T03:43:00Z,00000200,01000000,-000.49,0000.10,0000.28,0000.35,-000.11,0000.20,0000.22,0000.07,0000.01,16.3,22.4,,00.0,0647.1,30.7
2021-11-08T03:44:00Z,00000200,01000000,0000.43,-000.01,0000.02,0000.05,0000.18,0000.23,-000.24,-000.08,-000.06,16.4,22.4,,00.0,0647.0,30.7
2021-11-08T03:45:00Z,00000200,01000000,-000.57,0000.10,0000.03,-000.14,-000.09,-000.09,0000.44,0000.26,0000.32,16.4,22.4,,00.0,0647.0,30.7
2021-11-08T03:46:00Z,00000200,01000000,0000.24,-000.02,-000.07,-000.42,0000.40,-000.35,0000.39,0000.16,0000.21,16.4,22.4,,00.0,0647.0,30.7
2021-11-08T03:47:00Z,00000200,01000000,0000.62,0000.21,0000.06,-000.31,-000.15,0000.12,-000.03,0000.26,-000.03,16.4,22.4,,00.0,0647.0,30.7
2021-11-08T03:48:00Z,00000200,01000000,-000.34,0000.31,0000.28,0000.51,0000.24,-000.02,-000.06,0000.30,0000.23,16.4,22.4,,00.0,0647.0,30.7
2021-11-08T03:49:00Z,00000200,01000000,-000.31,0000.19,0000.26,-000.45,0000.04,0000.30,0000.25,0000.05,-000.25,16.4,22.5,,00.0,0647.0,30.7
2021-11-08T03:50:00Z,00000200,01000000,0000.45,0000.37,-000.03,0000.71,0000.03,-000.07,-000.17,0000.06,0000.33,16.4,22.5,,00.0,0647.0,30.7
2021-11-08T03:51:00Z,00000200,01000000,0000.44,0000.43,0000.26,-000.16,0000.03,-000.22,0000.32,-000.00,0000.09,16.5,22.5,,00.0,0646.9,30.7
2021-11-08T03:52:00Z,00000200,01000000,0000.41,-000.00,0000.17,-000.36,0000.31,-000.25,-000.06,-000.07,0000.12,16.5,22.5,,00.0,0646.9,30.7
2021-11-08T03:53:00Z,00000200,01000000,0000.51,-000.17,0000.19,0000.11,0000.51,0000.02,0000.40,0000.27,0000.12,16.5,22.5,,00.0,0646.9,30.7
2021-11-08T03:54:00Z,00000200,01000000,-000.03,0000.23,0000.26,0000.37,0000.51,-000.08,0000.07,0000.12,0000.25,16.5,22.5,,00.0,0646.8,30.7
2021-11-08T03:55:00Z,00000200,01000000,0000.53,0000.16,0000.21,0000.48,0000.33,-000.21,-000.02,0000.51,-000.39,16.5,22.5,,00.0,0646.8,30.7
2021-11-08T03:56:00Z,00000200,01000000,0000.33,0000.59,0000.04,0000.09,0000.38,-000.18,0000.30,-000.42,0000.17,16.5,22.5,,00.0,0646.8,30.7
2021-11-08T03:57:00Z,00000200,41000000,,,,,,,-001.07,-000.65,-000.77,16.5,22.6,,00.0,0646.8,30.7
2021-11-08T03:58:00Z,00000200,61000000,,,,,,,0000.57,0000.37,0000.41,16.2,22.6,,00.0,0645.9,30.7
2021-11-08T03:59:00Z,00000200,21000000,,,,,,,-000.11,0000.24,0000.41,16.2,22.7,,00.0,0645.9,30.7
